Retour au catalogue

CZ-6A DEB

ActifSSO
NORAD 56627·DEBRIS·🇨🇳 China

Lancé Nov 11, 2022 depuis Taiyuan Satellite Launch Center

Loading…

Prochains Passages (prochaines 24 heures)

TLE

VieillissantSource: Space-Track

Époque: Sep 10, 2026, 06:38 UTC

1 56627U 22151AFB 26253.27693556  .00001487  00000-0  70922-3 0  9991
2 56627  98.8253 265.3906 0037645  64.6536 295.8531 14.20412280183828

Suivez CZ-6A DEB en temps réel avec AllMySat

Download on the App Store